QPF
0.08 0.08 0.09 0.08 0.07 0.06 0.06 0.07 0.09 0.09 0.07 0.06 0.06 0.05 0.05 0.05 0.05 0.05 0.06 0.04 0.03 0.04 0.04 0.05 0.05 0.03 0.03 0.03 0.03 0.02 0.02 0.02 0.02 0.02 0.01 0.02 0.03 0.06
0.11 0.09 0.08 0.08 0.07 0.07 0.07 0.06 0.07 0.09 0.08 0.05 0.04 0.06 0.06 0.05 0.06 0.05 0.06 0.05 0.04 0.04 0.04 0.04 0.05 0.04 0.03 0.03 0.02 0.02 0.02 0.03 0.04 0.03 0.02 0.02 0.04 0.05
0.12 0.10 0.08 0.07 0.07 0.07 0.06 0.06 0.06 0.07 0.09 0.07 0.05 0.06 0.08 0.06 0.06 0.06 0.06 0.05 0.04 0.04 0.04 0.04 0.04 0.04 0.03 0.02 0.02 0.02 0.03 0.03 0.04 0.05 0.04 0.04 0.06 0.07
0.11 0.10 0.08 0.07 0.07 0.07 0.06 0.06 0.06 0.05 0.08 0.09 0.06 0.05 0.08 0.08 0.06 0.06 0.06 0.05 0.04 0.04 0.04 0.04 0.04 0.03 0.03 0.02 0.02 0.04 0.04 0.03 0.04 0.06 0.06 0.04 0.05 0.05
0.08 0.08 0.07 0.06 0.06 0.06 0.06 0.06 0.06 0.06 0.07 0.09 0.08 0.07 0.07 0.10 0.07 0.07 0.06 0.05 0.05 0.05 0.04 0.04 0.04 0.04 0.03 0.03 0.02 0.03 0.04 0.03 0.03 0.04 0.03 0.02 0.02 0.03
0.07 0.06 0.05 0.05 0.05 0.05 0.06 0.06 0.07 0.07 0.06 0.08 0.09 0.08 0.08 0.10 0.09 0.08 0.07 0.07 0.07 0.06 0.06 0.05 0.05 0.05 0.04 0.03 0.02 0.02 0.02 0.03 0.03 0.02 0.02 0.02 0.02 0.02
0.06 0.05 0.04 0.05 0.04 0.04 0.04 0.05 0.06 0.06 0.06 0.07 0.09 0.09 0.09 0.09 0.09 0.07 0.06 0.07 0.08 0.08 0.07 0.06 0.06 0.06 0.05 0.04 0.03 0.03 0.03 0.03 0.03 0.02 0.01 0.01 0.01 0.01
0.07 0.05 0.04 0.04 0.03 0.03 0.03 0.04 0.04 0.05 0.05 0.06 0.09 0.08 0.09 0.09 0.07 0.06 0.05 0.05 0.07 0.07 0.06 0.06 0.04 0.04 0.04 0.04 0.04 0.04 0.03 0.03 0.02 0.01 0.01 0.01 0.01 0.01
0.07 0.06 0.05 0.05 0.03 0.03 0.03 0.03 0.04 0.05 0.05 0.06 0.07 0.07 0.08 0.09 0.08 0.06 0.05 0.04 0.04 0.04 0.04 0.05 0.04 0.03 0.03 0.03 0.03 0.03 0.02 0.02 0.02 0.01 0.00 0.00 0.00 0.01
0.06 0.06 0.06 0.06 0.04 0.03 0.03 0.03 0.03 0.05 0.06 0.07 0.07 0.07 0.07 0.08 0.10 0.09 0.06 0.04 0.04 0.04 0.03 0.04 0.03 0.03 0.02 0.02 0.02 0.02 0.02 0.02 0.01 0.00 0.00 0.00 0.00 0.00
0.06 0.06 0.06 0.06 0.05 0.05 0.04 0.04 0.04 0.04 0.05 0.07 0.09 0.08 0.07 0.07 0.09 0.09 0.07 0.05 0.04 0.05 0.04 0.03 0.02 0.02 0.02 0.01 0.01 0.01 0.01 0.01 0.01 0.01 0.01 0.01 0.01 0.01
0.07 0.06 0.07 0.06 0.06 0.05 0.04 0.04 0.04 0.04 0.05 0.07 0.09 0.09 0.08 0.07 0.07 0.06 0.06 0.05 0.04 0.04 0.03 0.02 0.02 0.02 0.02 0.01 0.01 0.01 0.01 0.01 0.01 0.02 0.01 0.01 0.00 0.00
0.08 0.07 0.07 0.07 0.07 0.05 0.04 0.04 0.04 0.05 0.05 0.06 0.08 0.09 0.08 0.07 0.07 0.06 0.05 0.04 0.03 0.03 0.02 0.02 0.02 0.02 0.02 0.01 0.01 0.01 0.01 0.01 0.01 0.01 0.01 0.01 0.00 0.00
0.08 0.08 0.07 0.08 0.07 0.06 0.05 0.05 0.04 0.05 0.05 0.05 0.06 0.07 0.08 0.08 0.07 0.06 0.05 0.05 0.04 0.03 0.02 0.02 0.02 0.02 0.02 0.01 0.01 0.01 0.00 0.01 0.01 0.01 0.00 0.00 0.00 0.00
0.09 0.09 0.08 0.08 0.07 0.06 0.06 0.05 0.05 0.04 0.05 0.05 0.05 0.05 0.06 0.07 0.07 0.07 0.06 0.05 0.04 0.03 0.02 0.02 0.02 0.02 0.02 0.02 0.01 0.01 0.00 0.00 0.01 0.01 0.00 0.00 0.00 0.00
0.08 0.08 0.08 0.07 0.07 0.06 0.06 0.05 0.05 0.05 0.06 0.05 0.05 0.05 0.05 0.06 0.06 0.06 0.06 0.06 0.05 0.03 0.02 0.02 0.02 0.02 0.02 0.02 0.01 0.01 0.01 0.00 0.00 0.00 0.00 0.00 0.00 0.00
0.07 0.07 0.07 0.07 0.07 0.06 0.05 0.05 0.05 0.05 0.06 0.05 0.05 0.05 0.05 0.05 0.06 0.05 0.04 0.05 0.05 0.04 0.02 0.01 0.01 0.02 0.01 0.01 0.01 0.01 0.01 0.01 0.00 0.00 0.00 0.00 0.00 0.00
0.07 0.07 0.07 0.08 0.07 0.06 0.05 0.05 0.04 0.04 0.04 0.04 0.04 0.04 0.04 0.05 0.05 0.05 0.04 0.04 0.04 0.04 0.03 0.02 0.02 0.02 0.02 0.02 0.01 0.01 0.01 0.01 0.01 0.00 0.00 0.00 0.00 0.00
0.06 0.07 0.07 0.07 0.07 0.05 0.04 0.04 0.03 0.03 0.03 0.04 0.04 0.04 0.04 0.04 0.04 0.04 0.04 0.04 0.04 0.04 0.03 0.03 0.02 0.02 0.02 0.02 0.02 0.01 0.01 0.01 0.00 0.00 0.00 0.00 0.00 0.00
0.05 0.06 0.06 0.06 0.06 0.05 0.03 0.03 0.02 0.02 0.03 0.03 0.03 0.03 0.03 0.03 0.04 0.04 0.03 0.03 0.03 0.03 0.03 0.02 0.02 0.02 0.02 0.02 0.02 0.02 0.01 0.01 0.01 0.01 0.01 0.00 0.00 0.00
0.04 0.05 0.06 0.06 0.05 0.04 0.04 0.03 0.03 0.03 0.03 0.03 0.03 0.03 0.03 0.03 0.03 0.03 0.03 0.03 0.03 0.03 0.03 0.02 0.02 0.02 0.01 0.01 0.02 0.02 0.01 0.01 0.02 0.01 0.01 0.01 0.01 0.01
0.04 0.05 0.05 0.05 0.05 0.04 0.04 0.03 0.03 0.03 0.03 0.03 0.03 0.03 0.03 0.03 0.03 0.02 0.02 0.03 0.03 0.03 0.03 0.02 0.02 0.01 0.01 0.02 0.02 0.02 0.02 0.02 0.02 0.01 0.01 0.02 0.03 0.04
0.04 0.04 0.05 0.06 0.06 0.05 0.04 0.03 0.03 0.03 0.03 0.03 0.03 0.03 0.03 0.03 0.02 0.02 0.02 0.02 0.02 0.02 0.02 0.03 0.03 0.02 0.02 0.02 0.02 0.02 0.02 0.02 0.03 0.03 0.03 0.02 0.02 0.03
MSLP
1005.25 1005.33 1005.48 1005.67 1005.88 1006.08 1006.27 1006.46 1006.63 1006.81 1007.01 1007.23 1007.49 1007.78 1008.10 1008.43 1008.78 1009.11 1009.44 1009.74 1010.02 1010.26 1010.48 1010.69 1010.88 1011.07 1011.27 1011.47 1011.67 1011.86 1012.04 1012.19 1012.29 1012.35 1012.36 1012.31 1012.21 1012.09
1004.43 1004.47 1004.60 1004.80 1005.04 1005.28 1005.53 1005.77 1006.00 1006.23 1006.47 1006.73 1007.01 1007.30 1007.62 1007.95 1008.29 1008.62 1008.95 1009.25 1009.54 1009.81 1010.05 1010.29 1010.50 1010.71 1010.92 1011.11 1011.29 1011.46 1011.59 1011.70 1011.77 1011.78 1011.75 1011.68 1011.56 1011.42
1003.70 1003.67 1003.76 1003.93 1004.17 1004.45 1004.74 1005.04 1005.34 1005.64 1005.94 1006.24 1006.55 1006.87 1007.19 1007.52 1007.84 1008.17 1008.48 1008.78 1009.07 1009.34 1009.61 1009.85 1010.09 1010.31 1010.52 1010.71 1010.87 1011.00 1011.10 1011.17 1011.19 1011.17 1011.11 1011.02 1010.89 1010.75
1003.09 1002.97 1002.99 1003.12 1003.34 1003.63 1003.96 1004.31 1004.68 1005.05 1005.41 1005.78 1006.13 1006.48 1006.81 1007.14 1007.44 1007.74 1008.03 1008.31 1008.58 1008.85 1009.11 1009.37 1009.61 1009.84 1010.04 1010.22 1010.36 1010.46 1010.53 1010.56 1010.55 1010.51 1010.44 1010.33 1010.21 1010.07
1002.61 1002.41 1002.35 1002.42 1002.61 1002.89 1003.23 1003.63 1004.05 1004.48 1004.92 1005.34 1005.74 1006.12 1006.46 1006.78 1007.07 1007.34 1007.59 1007.83 1008.07 1008.31 1008.56 1008.80 1009.04 1009.25 1009.45 1009.61 1009.73 1009.82 1009.86 1009.87 1009.84 1009.79 1009.72 1009.62 1009.51 1009.38
1002.29 1002.00 1001.86 1001.87 1002.00 1002.25 1002.59 1003.01 1003.46 1003.95 1004.43 1004.91 1005.36 1005.76 1006.12 1006.43 1006.70 1006.93 1007.14 1007.33 1007.53 1007.73 1007.94 1008.15 1008.37 1008.56 1008.74 1008.88 1008.98 1009.05 1009.08 1009.08 1009.05 1009.00 1008.94 1008.86 1008.76 1008.65
1002.10 1001.74 1001.53 1001.47 1001.54 1001.74 1002.05 1002.46 1002.92 1003.43 1003.95 1004.47 1004.95 1005.38 1005.74 1006.05 1006.30 1006.50 1006.66 1006.81 1006.96 1007.11 1007.28 1007.45 1007.62 1007.79 1007.93 1008.05 1008.14 1008.19 1008.21 1008.20 1008.17 1008.14 1008.09 1008.02 1007.95 1007.85
1002.03 1001.62 1001.35 1001.21 1001.21 1001.35 1001.61 1001.97 1002.42 1002.93 1003.46 1003.99 1004.49 1004.93 1005.31 1005.62 1005.86 1006.03 1006.17 1006.28 1006.38 1006.48 1006.60 1006.73 1006.85 1006.98 1007.09 1007.18 1007.24 1007.27 1007.27 1007.26 1007.23 1007.20 1007.16 1007.11 1007.04 1006.94
1002.04 1001.61 1001.28 1001.08 1001.00 1001.06 1001.25 1001.55 1001.96 1002.43 1002.95 1003.48 1003.98 1004.44 1004.83 1005.14 1005.38 1005.55 1005.66 1005.75 1005.82 1005.89 1005.96 1006.04 1006.13 1006.21 1006.28 1006.33 1006.36 1006.36 1006.34 1006.31 1006.27 1006.23 1006.18 1006.13 1006.05 1005.94
1002.11 1001.66 1001.30 1001.04 1000.89 1000.87 1000.97 1001.20 1001.53 1001.96 1002.44 1002.94 1003.44 1003.90 1004.30 1004.63 1004.88 1005.05 1005.17 1005.26 1005.31 1005.36 1005.40 1005.45 1005.50 1005.54 1005.57 1005.58 1005.56 1005.52 1005.47 1005.40 1005.33 1005.26 1005.18 1005.10 1004.99 1004.85
1002.21 1001.76 1001.37 1001.06 1000.85 1000.75 1000.78 1000.92 1001.18 1001.54 1001.97 1002.44 1002.92 1003.37 1003.78 1004.12 1004.39 1004.59 1004.73 1004.82 1004.88 1004.92 1004.96 1004.99 1005.01 1005.01 1005.00 1004.96 1004.90 1004.81 1004.70 1004.59 1004.46 1004.33 1004.20 1004.06 1003.91 1003.72
1002.31 1001.88 1001.48 1001.14 1000.88 1000.72 1000.67 1000.74 1000.92 1001.21 1001.58 1002.01 1002.46 1002.90 1003.31 1003.66 1003.95 1004.17 1004.34 1004.45 1004.53 1004.58 1004.62 1004.64 1004.64 1004.62 1004.58 1004.50 1004.38 1004.24 1004.07 1003.88 1003.68 1003.48 1003.27 1003.06 1002.83 1002.58
1002.41 1002.00 1001.61 1001.27 1000.98 1000.77 1000.67 1000.68 1000.79 1001.02 1001.33 1001.71 1002.12 1002.53 1002.93 1003.28 1003.58 1003.82 1004.00 1004.14 1004.24 1004.30 1004.35 1004.37 1004.37 1004.33 1004.26 1004.14 1003.98 1003.78 1003.54 1003.28 1003.00 1002.70 1002.41 1002.10 1001.79 1001.46
1002.50 1002.12 1001.75 1001.41 1001.12 1000.90 1000.77 1000.73 1000.80 1000.97 1001.23 1001.55 1001.92 1002.29 1002.66 1002.99 1003.28 1003.52 1003.71 1003.85 1003.96 1004.05 1004.10 1004.13 1004.13 1004.09 1004.00 1003.85 1003.65 1003.39 1003.09 1002.75 1002.38 1001.99 1001.59 1001.18 1000.77 1000.36
1002.56 1002.22 1001.88 1001.57 1001.30 1001.08 1000.94 1000.89 1000.93 1001.06 1001.27 1001.53 1001.84 1002.17 1002.48 1002.78 1003.03 1003.25 1003.42 1003.56 1003.67 1003.76 1003.82 1003.85 1003.85 1003.81 1003.71 1003.55 1003.32 1003.02 1002.65 1002.23 1001.78 1001.29 1000.79 1000.28 999.77 999.26
1002.57 1002.27 1001.98 1001.71 1001.47 1001.29 1001.16 1001.11 1001.13 1001.23 1001.40 1001.61 1001.86 1002.12 1002.37 1002.60 1002.81 1002.98 1003.12 1003.23 1003.33 1003.41 1003.47 1003.51 1003.51 1003.46 1003.36 1003.18 1002.93 1002.59 1002.17 1001.68 1001.14 1000.56 999.96 999.35 998.74 998.14
1002.53 1002.27 1002.03 1001.81 1001.62 1001.47 1001.37 1001.34 1001.36 1001.44 1001.56 1001.73 1001.91 1002.10 1002.28 1002.44 1002.58 1002.69 1002.78 1002.86 1002.93 1002.99 1003.04 1003.07 1003.08 1003.03 1002.92 1002.73 1002.45 1002.08 1001.61 1001.06 1000.44 999.77 999.07 998.35 997.64 996.94
1002.41 1002.20 1002.00 1001.84 1001.70 1001.59 1001.53 1001.51 1001.54 1001.61 1001.70 1001.82 1001.95 1002.07 1002.17 1002.26 1002.33 1002.38 1002.42 1002.45 1002.49 1002.53 1002.57 1002.59 1002.58 1002.53 1002.41 1002.21 1001.90 1001.49 1000.97 1000.35 999.66 998.89 998.09 997.27 996.44 995.64
1002.25 1002.07 1001.92 1001.79 1001.70 1001.64 1001.61 1001.61 1001.64 1001.70 1001.77 1001.85 1001.92 1001.98 1002.03 1002.05 1002.06 1002.06 1002.06 1002.06 1002.06 1002.08 1002.10 1002.11 1002.09 1002.02 1001.87 1001.64 1001.29 1000.83 1000.26 999.57 998.79 997.93 997.02 996.09 995.16 994.24
1002.04 1001.90 1001.78 1001.70 1001.64 1001.61 1001.60 1001.62 1001.66 1001.70 1001.75 1001.80 1001.83 1001.85 1001.85 1001.83 1001.80 1001.77 1001.73 1001.71 1001.70 1001.70 1001.70 1001.68 1001.64 1001.53 1001.35 1001.07 1000.67 1000.15 999.49 998.73 997.85 996.90 995.89 994.85 993.81 992.78
1001.82 1001.71 1001.63 1001.57 1001.54 1001.53 1001.53 1001.56 1001.59 1001.62 1001.66 1001.68 1001.69 1001.69 1001.66 1001.62 1001.58 1001.53 1001.48 1001.45 1001.43 1001.41 1001.39 1001.35 1001.27 1001.12 1000.88 1000.53 1000.06 999.45 998.71 997.85 996.89 995.83 994.73 993.58 992.44 991.31
1001.62 1001.53 1001.47 1001.44 1001.41 1001.41 1001.42 1001.44 1001.47 1001.49 1001.52 1001.53 1001.52 1001.51 1001.48 1001.44 1001.40 1001.35 1001.32 1001.29 1001.26 1001.24 1001.19 1001.12 1000.98 1000.78 1000.46 1000.03 999.47 998.77 997.93 996.97 995.90 994.76 993.56 992.33 991.10 989.90
1001.45 1001.38 1001.34 1001.31 1001.29 1001.29 1001.29 1001.30 1001.32 1001.34 1001.34 1001.35 1001.34 1001.33 1001.31 1001.29 1001.26 1001.24 1001.22 1001.19 1001.17 1001.13 1001.06 1000.94 1000.75 1000.47 1000.07 999.55 998.88 998.08 997.14 996.09 994.94 993.71 992.44 991.15 989.86 988.60
Thickness
5540 5540 5541 5543 5544 5547 5548 5550 5551 5553 5557 5558 5555 5555 5554 5553 5552 5551 5550 5550 5548 5546 5544 5541 5539 5536 5533 5530 5528 5525 5523 5520 5517 5515 5513 5511 5509 5507
5531 5533 5533 5534 5535 5537 5539 5540 5542 5545 5548 5550 5547 5547 5546 5545 5545 5544 5543 5542 5541 5539 5537 5535 5532 5529 5526 5523 5521 5518 5516 5514 5511 5509 5506 5504 5502 5500
5522 5524 5526 5526 5527 5529 5530 5531 5533 5535 5538 5539 5537 5537 5538 5538 5537 5537 5536 5535 5534 5532 5530 5527 5526 5523 5520 5517 5514 5512 5510 5508 5505 5502 5499 5498 5495 5494
5513 5515 5516 5517 5518 5520 5522 5524 5526 5527 5529 5531 5531 5530 5531 5532 5531 5529 5529 5527 5526 5524 5522 5521 5519 5516 5514 5511 5508 5505 5503 5501 5498 5495 5493 5491 5489 5487
5504 5506 5507 5508 5511 5512 5514 5516 5517 5519 5521 5522 5524 5523 5524 5524 5523 5521 5521 5519 5518 5517 5515 5513 5512 5509 5507 5505 5501 5499 5496 5493 5491 5489 5487 5484 5482 5480
5495 5497 5498 5500 5502 5504 5506 5508 5509 5510 5512 5514 5515 5516 5516 5515 5515 5515 5514 5513 5511 5510 5507 5506 5504 5502 5500 5498 5495 5493 5489 5487 5484 5482 5480 5478 5476 5474
5486 5488 5489 5491 5493 5495 5498 5500 5500 5502 5504 5506 5508 5509 5509 5508 5508 5508 5506 5505 5504 5502 5500 5499 5498 5496 5493 5491 5489 5486 5483 5480 5478 5475 5473 5472 5469 5467
5478 5479 5481 5483 5485 5487 5489 5491 5492 5495 5497 5499 5501 5503 5503 5502 5500 5499 5498 5497 5496 5494 5492 5492 5490 5489 5487 5485 5482 5479 5476 5474 5471 5469 5467 5465 5463 5461
5470 5472 5474 5475 5477 5479 5480 5481 5483 5485 5489 5492 5493 5495 5495 5495 5492 5491 5490 5489 5489 5487 5485 5484 5483 5482 5480 5478 5475 5472 5469 5467 5465 5463 5461 5459 5457 5456
5462 5464 5465 5468 5470 5471 5472 5474 5476 5478 5481 5483 5485 5486 5485 5484 5483 5482 5482 5480 5479 5478 5477 5476 5476 5474 5472 5470 5467 5464 5462 5460 5459 5457 5455 5453 5452 5451
5454 5456 5459 5462 5464 5464 5465 5467 5469 5470 5471 5472 5473 5474 5475 5475 5475 5474 5473 5472 5472 5471 5469 5468 5468 5466 5465 5463 5460 5457 5455 5454 5452 5450 5448 5447 5446 5445
5447 5449 5452 5454 5457 5458 5459 5461 5462 5462 5463 5463 5464 5464 5465 5465 5466 5467 5468 5466 5465 5464 5463 5460 5459 5457 5457 5456 5453 5450 5449 5447 5445 5444 5442 5441 5440 5439
5439 5442 5444 5446 5449 5451 5452 5453 5454 5453 5453 5454 5455 5456 5457 5457 5458 5459 5459 5459 5459 5458 5456 5454 5452 5450 5448 5447 5446 5444 5442 5441 5439 5438 5437 5435 5433 5432
5431 5434 5437 5439 5441 5442 5443 5444 5444 5445 5445 5446 5447 5448 5449 5449 5450 5451 5451 5450 5450 5451 5449 5448 5446 5445 5443 5441 5439 5438 5436 5434 5433 5432 5431 5429 5428 5427
5423 5426 5429 5431 5432 5434 5435 5436 5436 5437 5438 5439 5440 5441 5440 5440 5441 5442 5443 5443 5443 5443 5443 5442 5441 5439 5437 5435 5433 5431 5430 5428 5427 5426 5425 5424 5423 5423
5415 5418 5420 5422 5424 5426 5427 5428 5430 5431 5432 5432 5432 5432 5432 5433 5434 5436 5437 5438 5437 5437 5436 5436 5435 5434 5431 5429 5427 5425 5424 5423 5422 5420 5419 5418 5418 5418
5405 5408 5411 5413 5416 5418 5419 5421 5422 5423 5423 5424 5424 5425 5426 5427 5428 5429 5430 5431 5431 5430 5430 5429 5429 5427 5426 5423 5421 5420 5419 5418 5417 5415 5414 5414 5414 5414
5397 5401 5403 5406 5408 5410 5411 5413 5415 5415 5416 5417 5418 5420 5421 5422 5422 5423 5424 5425 5425 5424 5424 5423 5423 5422 5420 5417 5415 5414 5414 5413 5412 5411 5410 5410 5411 5411
5390 5394 5396 5399 5401 5402 5404 5406 5407 5408 5409 5411 5412 5414 5415 5415 5416 5417 5418 5418 5418 5418 5417 5417 5417 5417 5417 5415 5411 5408 5408 5408 5407 5407 5406 5406 5407 5408
5382 5386 5388 5390 5393 5395 5396 5398 5399 5401 5402 5404 5406 5408 5409 5409 5410 5412 5412 5412 5413 5413 5412 5411 5410 5411 5412 5410 5406 5404 5403 5403 5403 5403 5403 5403 5403 5404
5373 5377 5380 5382 5385 5387 5389 5391 5392 5394 5396 5397 5400 5401 5402 5403 5405 5406 5406 5406 5407 5407 5407 5405 5404 5404 5404 5403 5402 5401 5400 5399 5399 5398 5399 5399 5401 5402
5365 5368 5371 5375 5378 5380 5382 5384 5385 5387 5389 5391 5393 5395 5396 5398 5399 5400 5401 5401 5401 5401 5400 5399 5399 5400 5400 5401 5400 5398 5397 5397 5396 5395 5395 5396 5396 5398
5357 5361 5364 5368 5371 5373 5375 5377 5379 5381 5383 5385 5387 5389 5391 5392 5393 5394 5395 5396 5396 5395 5395 5395 5395 5395 5395 5396 5395 5394 5393 5394 5394 5394 5393 5392 5392 5393